Tracking 27405 objects as of 1-Jun-2023
HD Live streaming from Space Station
objects crossing your sky now

DMSP 5D-3 F17 DEB

Track DMSP 5D-3 F17 DEB now!
10-day predictions


NORAD ID: 29637
Int'l Code: 2006-050BV
Perigee: 793.2 km
Apogee: 807.9 km
Inclination: 98.6 °
Period: 100.7 minutes
Semi major axis: 7171 km
RCS: 0.1292 m2 (medium)
Launch date: November 4, 2006
Source: United States (US)
Launch site: AIR FORCE WESTERN TEST RANGE (AFWTR)

Note: This is SATELLITE DEBRIS
Your satellite tracking list
Your tracking list is empty




NASA's NSSDC Master Catalog

Two Line Element Set (TLE):
1 29637U 06050BV  23152.07422477  .00003047  00000-0  12088-2 0  9999
2 29637  98.5719 189.1659 0010205 166.3871 193.7588 14.29501241855476
Source of the keplerian elements: AFSPC